Time,TemperatureF,DewpointF,PressureIn,WindDirection,WindDirectionDegrees,WindSpeedMPH,WindSpeedGustMPH,Humidity,HourlyPrecipIn,Conditions,Clouds,dailyrainin,SoftwareType,DateUTC
2013-03-05 00:14:00,31.5,27.0,30.03,East,84,2.0,5.0,83,0.00,,,0.00,weatherlink.com 1.10,2013-03-05 06:14:00,
2013-03-05 00:29:00,31.6,27.0,30.02,East,96,3.0,5.0,83,0.00,,,0.00,weatherlink.com 1.10,2013-03-05 06:29:00,
2013-03-05 00:44:00,31.6,27.0,30.02,ESE,102,4.0,6.0,83,0.00,,,0.00,weatherlink.com 1.10,2013-03-05 06:44:00,
2013-03-05 00:59:00,31.7,27.0,30.02,East,83,2.0,7.0,83,0.00,,,0.00,weatherlink.com 1.10,2013-03-05 06:59:00,
2013-03-05 01:14:00,31.7,27.0,30.01,East,86,7.0,7.0,83,0.00,,,0.00,weatherlink.com 1.10,2013-03-05 07:14:00,
2013-03-05 01:29:00,31.7,27.0,30.01,East,96,5.0,6.0,83,0.00,,,0.00,weatherlink.com 1.10,2013-03-05 07:29:00,
2013-03-05 01:44:00,31.7,27.0,30.00,ENE,63,3.0,7.0,84,0.00,,,0.00,weatherlink.com 1.10,2013-03-05 07:44:00,
2013-03-05 01:59:00,31.6,28.0,29.99,East,90,3.0,6.0,85,0.00,,,0.00,weatherlink.com 1.10,2013-03-05 07:59:00,
2013-03-05 02:14:00,31.6,28.0,29.99,ENE,78,3.0,5.0,85,0.00,,,0.00,weatherlink.com 1.10,2013-03-05 08:14:00,
2013-03-05 02:29:00,31.5,28.0,29.98,East,87,2.0,5.0,86,0.00,,,0.00,weatherlink.com 1.10,2013-03-05 08:29:00,
2013-03-05 02:44:00,31.5,28.0,29.98,East,84,3.0,5.0,86,0.00,,,0.00,weatherlink.com 1.10,2013-03-05 08:44:00,
2013-03-05 02:59:00,31.5,28.0,29.97,ENE,73,4.0,9.0,86,0.00,,,0.00,weatherlink.com 1.10,2013-03-05 08:59:00,
2013-03-05 03:14:00,31.5,28.0,29.96,East,88,3.0,8.0,87,0.00,,,0.00,weatherlink.com 1.10,2013-03-05 09:14:00,
2013-03-05 03:29:00,31.5,28.0,29.95,ENE,61,3.0,7.0,87,0.00,,,0.00,weatherlink.com 1.10,2013-03-05 09:29:00,
2013-03-05 03:44:00,31.5,28.0,29.95,East,91,3.0,6.0,87,0.00,,,0.00,weatherlink.com 1.10,2013-03-05 09:44:00,
2013-03-05 03:59:00,31.6,28.0,29.95,ENE,70,5.0,7.0,87,0.00,,,0.00,weatherlink.com 1.10,2013-03-05 09:59:00,
2013-03-05 04:14:00,31.6,29.0,29.95,East,81,3.0,5.0,88,0.00,,,0.00,weatherlink.com 1.10,2013-03-05 10:14:00,
2013-03-05 04:29:00,31.6,29.0,29.94,ENE,59,3.0,7.0,88,0.00,,,0.00,weatherlink.com 1.10,2013-03-05 10:29:00,
2013-03-05 04:44:00,31.6,29.0,29.94,ENE,65,2.0,6.0,89,0.00,,,0.00,weatherlink.com 1.10,2013-03-05 10:44:00,
2013-03-05 04:59:00,31.6,29.0,29.93,East,80,5.0,7.0,89,0.00,,,0.00,weatherlink.com 1.10,2013-03-05 10:59:00,
2013-03-05 05:15:00,31.5,29.0,29.93,ENE,78,3.0,7.0,90,0.00,,,0.00,weatherlink.com 1.10,2013-03-05 11:15:00,
2013-03-05 05:29:00,31.3,29.0,29.93,ENE,63,5.0,8.0,91,0.00,,,0.00,weatherlink.com 1.10,2013-03-05 11:29:00,
2013-03-05 05:44:00,31.3,29.0,29.92,East,86,5.0,7.0,92,0.00,,,0.00,weatherlink.com 1.10,2013-03-05 11:44:00,
2013-03-05 06:00:00,31.2,29.0,29.92,ESE,102,5.0,8.0,93,0.00,,,0.00,weatherlink.com 1.10,2013-03-05 12:00:00,
2013-03-05 06:15:00,31.1,29.0,29.92,East,88,2.0,5.0,93,0.00,,,0.00,weatherlink.com 1.10,2013-03-05 12:15:00,
2013-03-05 06:30:00,31.0,30.0,29.92,ENE,71,2.0,4.0,94,0.00,,,0.00,weatherlink.com 1.10,2013-03-05 12:30:00,
2013-03-05 06:45:00,30.9,29.0,29.92,East,82,0.0,4.0,94,0.00,,,0.00,weatherlink.com 1.10,2013-03-05 12:45:00,
2013-03-05 07:00:00,30.9,29.0,29.92,NE,47,1.0,4.0,94,0.00,,,0.00,weatherlink.com 1.10,2013-03-05 13:00:00,
2013-03-05 07:15:00,30.9,30.0,29.93,ENE,59,2.0,4.0,95,0.00,,,0.00,weatherlink.com 1.10,2013-03-05 13:15:00,
2013-03-05 07:30:00,30.8,30.0,29.93,East,82,0.0,4.0,95,0.00,,,0.00,weatherlink.com 1.10,2013-03-05 13:30:00,
2013-03-05 07:45:00,30.9,30.0,29.93,East,100,0.0,2.0,95,0.00,,,0.00,weatherlink.com 1.10,2013-03-05 13:45:00,
2013-03-05 08:00:00,31.1,30.0,29.93,East,90,0.0,5.0,95,0.00,,,0.00,weatherlink.com 1.10,2013-03-05 14:00:00,
2013-03-05 08:15:00,31.4,30.0,29.93,ENE,74,2.0,3.0,95,0.00,,,0.00,weatherlink.com 1.10,2013-03-05 14:15:00,
2013-03-05 08:30:00,31.6,30.0,29.92,East,83,0.0,4.0,95,0.00,,,0.00,weatherlink.com 1.10,2013-03-05 14:30:00,
2013-03-05 08:45:00,32.0,31.0,29.92,ENE,66,1.0,3.0,95,0.00,,,0.00,weatherlink.com 1.10,2013-03-05 14:45:00,
2013-03-05 09:00:00,32.2,31.0,29.91,NE,38,2.0,3.0,95,0.00,,,0.00,weatherlink.com 1.10,2013-03-05 15:00:00,
2013-03-05 09:15:00,32.4,31.0,29.90,ENE,77,2.0,4.0,95,0.00,,,0.00,weatherlink.com 1.10,2013-03-05 15:15:00,
2013-03-05 09:30:00,32.4,31.0,29.89,East,93,2.0,6.0,94,0.00,,,0.00,weatherlink.com 1.10,2013-03-05 15:30:00,
2013-03-05 09:46:00,32.4,31.0,29.89,NE,48,2.0,3.0,94,0.00,,,0.00,weatherlink.com 1.10,2013-03-05 15:46:00,
2013-03-05 10:00:00,32.4,31.0,29.89,ENE,66,2.0,6.0,94,0.00,,,0.00,weatherlink.com 1.10,2013-03-05 16:00:00,
2013-03-05 10:15:00,32.5,31.0,29.89,ENE,61,0.0,4.0,94,0.00,,,0.00,weatherlink.com 1.10,2013-03-05 16:15:00,
2013-03-05 10:30:00,32.6,31.0,29.88,ENE,77,1.0,3.0,94,0.00,,,0.00,weatherlink.com 1.10,2013-03-05 16:30:00,
2013-03-05 10:45:00,32.9,31.0,29.87,NE,51,3.0,3.0,94,0.00,,,0.00,weatherlink.com 1.10,2013-03-05 16:45:00,
2013-03-05 11:00:00,33.2,32.0,29.87,ENE,62,2.0,4.0,94,0.00,,,0.00,weatherlink.com 1.10,2013-03-05 17:00:00,
2013-03-05 11:15:00,33.2,32.0,29.87,NE,52,0.0,2.0,94,0.00,,,0.00,weatherlink.com 1.10,2013-03-05 17:15:00,
2013-03-05 11:30:00,33.3,32.0,29.87,ENE,62,1.0,2.0,94,0.00,,,0.00,weatherlink.com 1.10,2013-03-05 17:30:00,
2013-03-05 11:45:00,33.4,32.0,29.87,ENE,64,2.0,5.0,93,0.00,,,0.00,weatherlink.com 1.10,2013-03-05 17:45:00,
2013-03-05 12:00:00,33.6,32.0,29.87,ENE,70,2.0,4.0,94,0.00,,,0.00,weatherlink.com 1.10,2013-03-05 18:00:00,
2013-03-05 12:15:00,33.7,32.0,29.86,NE,51,3.0,4.0,94,0.00,,,0.00,weatherlink.com 1.10,2013-03-05 18:15:00,
2013-03-05 12:30:00,33.5,32.0,29.86,ENE,57,1.0,5.0,93,0.01,,,0.01,weatherlink.com 1.10,2013-03-05 18:30:00,
2013-03-05 12:45:00,33.4,32.0,29.86,ENE,75,3.0,6.0,93,0.02,,,0.02,weatherlink.com 1.10,2013-03-05 18:45:00,
2013-03-05 13:00:00,33.2,31.0,29.85,ENE,64,2.0,4.0,93,0.03,,,0.03,weatherlink.com 1.10,2013-03-05 19:00:00,
2013-03-05 13:15:00,33.0,31.0,29.85,ENE,60,2.0,5.0,93,0.03,,,0.03,weatherlink.com 1.10,2013-03-05 19:15:00,
2013-03-05 13:30:00,32.9,31.0,29.85,ENE,63,2.0,6.0,93,0.03,,,0.04,weatherlink.com 1.10,2013-03-05 19:30:00,
2013-03-05 13:45:00,32.9,31.0,29.84,NE,45,1.0,4.0,94,0.03,,,0.05,weatherlink.com 1.10,2013-03-05 19:45:00,
2013-03-05 14:00:00,32.9,31.0,29.84,ENE,73,2.0,4.0,93,0.02,,,0.05,weatherlink.com 1.10,2013-03-05 20:00:00,
2013-03-05 14:15:00,32.3,31.0,29.85,NE,39,1.0,5.0,93,0.03,,,0.06,weatherlink.com 1.10,2013-03-05 20:15:00,
2013-03-05 14:30:00,32.0,31.0,29.85,East,88,3.0,5.0,94,0.03,,,0.07,weatherlink.com 1.10,2013-03-05 20:30:00,
2013-03-05 14:45:00,31.9,30.0,29.85,NNE,26,1.0,7.0,94,0.02,,,0.07,weatherlink.com 1.10,2013-03-05 20:45:00,
2013-03-05 15:00:00,32.0,31.0,29.86,ENE,78,2.0,5.0,94,0.03,,,0.08,weatherlink.com 1.10,2013-03-05 21:00:00,
2013-03-05 15:15:00,31.9,30.0,29.86,NE,53,1.0,7.0,94,0.02,,,0.08,weatherlink.com 1.10,2013-03-05 21:15:00,
2013-03-05 15:30:00,31.2,30.0,29.87,NNE,31,1.0,5.0,94,0.02,,,0.01,weatherlink.com 1.10,2013-03-05 21:30:00,
2013-03-05 15:46:00,31.2,30.0,29.87,NE,36,0.0,3.0,94,0.02,,,0.01,weatherlink.com 1.10,2013-03-05 21:46:00,
2013-03-05 16:01:00,31.2,30.0,29.88,ENE,73,1.0,3.0,94,0.02,,,0.02,weatherlink.com 1.10,2013-03-05 22:01:00,
2013-03-05 16:16:00,31.2,30.0,29.88,NE,48,0.0,2.0,95,0.02,,,0.02,weatherlink.com 1.10,2013-03-05 22:16:00,
2013-03-05 16:31:00,30.8,29.0,29.89,NE,41,1.0,4.0,94,0.01,,,0.02,weatherlink.com 1.10,2013-03-05 22:31:00,
2013-03-05 16:46:00,30.4,29.0,29.90,NE,42,1.0,4.0,94,0.01,,,0.02,weatherlink.com 1.10,2013-03-05 22:46:00,
2013-03-05 17:01:00,30.4,29.0,29.91,North,11,0.0,3.0,94,0.01,,,0.03,weatherlink.com 1.10,2013-03-05 23:01:00,
2013-03-05 17:16:00,30.0,29.0,29.91,North,5,1.0,6.0,94,0.01,,,0.03,weatherlink.com 1.10,2013-03-05 23:16:00,
2013-03-05 17:31:00,29.3,28.0,29.92,North,360,1.0,4.0,94,0.01,,,0.03,weatherlink.com 1.10,2013-03-05 23:31:00,
2013-03-05 17:46:00,28.9,27.0,29.93,North,5,0.0,2.0,94,0.01,,,0.03,weatherlink.com 1.10,2013-03-05 23:46:00,
2013-03-05 18:01:00,28.7,28.0,29.94,North,9,1.0,3.0,95,0.00,,,0.03,weatherlink.com 1.10,2013-03-06 00:01:00,
2013-03-05 18:16:00,28.5,27.0,29.95,North,360,2.0,4.0,95,0.00,,,0.03,weatherlink.com 1.10,2013-03-06 00:16:00,
2013-03-05 18:31:00,28.2,27.0,29.95,NNW,344,1.0,2.0,95,0.00,,,0.03,weatherlink.com 1.10,2013-03-06 00:31:00,
2013-03-05 18:46:00,28.1,27.0,29.96,NNW,348,1.0,4.0,95,0.00,,,0.03,weatherlink.com 1.10,2013-03-06 00:46:00,
2013-03-05 19:01:00,28.1,27.0,29.96,North,351,2.0,3.0,96,0.00,,,0.03,weatherlink.com 1.10,2013-03-06 01:01:00,
2013-03-05 19:16:00,27.7,27.0,29.97,NNW,329,3.0,4.0,95,0.00,,,0.03,weatherlink.com 1.10,2013-03-06 01:16:00,
2013-03-05 19:31:00,27.4,26.0,29.97,NNW,338,2.0,3.0,95,0.00,,,0.03,weatherlink.com 1.10,2013-03-06 01:31:00,
2013-03-05 19:46:00,27.5,26.0,29.98,NNW,330,2.0,6.0,95,0.00,,,0.03,weatherlink.com 1.10,2013-03-06 01:46:00,
2013-03-05 20:01:00,27.5,26.0,29.98,NNW,336,3.0,6.0,95,0.00,,,0.03,weatherlink.com 1.10,2013-03-06 02:01:00,
2013-03-05 20:16:00,27.6,27.0,29.98,NNW,327,3.0,5.0,96,0.00,,,0.03,weatherlink.com 1.10,2013-03-06 02:16:00,
2013-03-05 20:31:00,27.6,27.0,29.99,NNW,343,2.0,5.0,96,0.00,,,0.03,weatherlink.com 1.10,2013-03-06 02:31:00,
2013-03-05 20:46:00,27.4,26.0,29.99,NNW,327,2.0,6.0,96,0.00,,,0.03,weatherlink.com 1.10,2013-03-06 02:46:00,
2013-03-05 21:01:00,27.0,26.0,30.00,NNW,328,2.0,5.0,95,0.00,,,0.03,weatherlink.com 1.10,2013-03-06 03:01:00,
2013-03-05 21:16:00,26.7,26.0,30.01,NNW,332,2.0,5.0,95,0.00,,,0.03,weatherlink.com 1.10,2013-03-06 03:16:00,
2013-03-05 21:31:00,26.7,26.0,30.02,NNE,20,1.0,4.0,95,0.00,,,0.03,weatherlink.com 1.10,2013-03-06 03:31:00,
2013-03-05 22:01:00,26.6,25.0,30.04,NNW,338,1.0,4.0,95,0.00,,,0.03,weatherlink.com 1.10,2013-03-06 04:01:00,
2013-03-05 22:16:00,26.6,25.0,30.04,NNW,333,2.0,4.0,95,0.00,,,0.03,weatherlink.com 1.10,2013-03-06 04:16:00,
2013-03-05 22:32:00,26.5,25.0,30.05,NNW,333,1.0,3.0,95,0.00,,,0.03,weatherlink.com 1.10,2013-03-06 04:32:00,
2013-03-05 22:47:00,26.3,25.0,30.05,NNW,329,2.0,4.0,95,0.00,,,0.03,weatherlink.com 1.10,2013-03-06 04:47:00,
2013-03-05 23:02:00,26.3,25.0,30.05,NNW,340,2.0,5.0,94,0.00,,,0.03,weatherlink.com 1.10,2013-03-06 05:02:00,
2013-03-05 23:17:00,26.4,25.0,30.06,NW,317,3.0,6.0,93,0.00,,,0.03,weatherlink.com 1.10,2013-03-06 05:17:00,
2013-03-05 23:32:00,26.4,25.0,30.06,North,349,3.0,5.0,93,0.00,,,0.03,weatherlink.com 1.10,2013-03-06 05:32:00,
2013-03-05 23:47:00,26.4,25.0,30.06,NNW,346,4.0,6.0,93,0.00,,,0.03,weatherlink.com 1.10,2013-03-06 05:47:00,